Regional Weather Roundup
Issued by NWS

Home | Current Version | Previous Version | Graphics & Text | Print | Product List | Glossary On
Versions: 1 2 3 4 5 6 7 8 9 10 11 12 13 14 15 16 17 18 19 20 21 22 23 24 25 26 27 28 29 30 31 32 33 34 35 36 37 38 39 40 41 42 43 44 45 46 47 48 49 50
070
ASUS43 KDTX 251901
RWRMI
MICHIGAN HOURLY REGIONAL WEATHER ROUNDUP
NATIONAL WEATHER SERVICE DETROIT/PONTIAC MI
300 PM EDT FRI MAY 25 2018

NOTE: "FAIR" INDICATES FEW OR NO CLOUDS BELOW 12,000 FEET WITH NO
SIGNIFICANT WEATHER AND/OR OBSTRUCTION TO VISIBILITY.

MIZ047>049-052>055-059>063-066>070-074>076-081>083-252000-
SOUTHEAST LOWER MICHIGAN

CITY           SKY/WX    TMP DP  RH WIND       PRES   REMARKS
ADRIAN         FAIR      83  55  38 SW8       29.93F
ANN ARBOR      FAIR      84  58  40 S9        29.90F
BAD AXE        FAIR      85  57  37 W14G21    29.85F
CARO           FAIR      87  57  36 SW14      29.85F
DETROIT CITY   FAIR      85  56  37 S10       29.89F
DETROIT        FAIR      85  55  35 SW13      29.90F
FLINT          FAIR      85  59  41 W9        29.88F
GROSSE ILE     FAIR      79  58  48 S8        29.91F
HILLSDALE      FAIR      84  52  32 S8        29.93F
HOWELL         FAIR      85  56  37 W8        29.91F

CITY           SKY/WX    TMP DP  RH WIND       PRES   REMARKS
JACKSON        FAIR      85  57  38 VRB3      29.91F
LAMBERTVILLE   FAIR      86  49  27 SW3       29.91F
LANSING        FAIR      86  58  38 SW13      29.90F
LAPEER         FAIR      87  55  32 W7        29.88F
MASON          FAIR      86  54  33 SW6       29.91F
PONTIAC        PTSUNNY   85  58  39 VRB6      29.89F
PORT HOPE        N/A     87  58  37 W14G20    29.81F
PORT HURON     FAIR      84  52  32 S13       29.88F
TRI CITIES     FAIR      88  61  40 W13       29.85F
MIDLAND        FAIR      88  61  40 W10G20    29.83F
TROY           FAIR      87  51  28 SW10      29.91F
SAGINAW HB     FAIR      88  54  31 SW17      29.85F
$$
MIZ043>046-050>051-056>058-064>065-071>073-077>080-252000-
SOUTHWEST LOWER MICHIGAN

CITY           SKY/WX    TMP DP  RH WIND       PRES   REMARKS
BATTLE CREEK   FAIR      85  58  39 SW10      29.91F
BENTON HARBOR  FAIR      84  60  44 SW12      29.90F
BIG RAPIDS     FAIR      85  56  37 W15G22    29.86F
COLDWATER      FAIR      84  47  27 W5        29.92F
HOLLAND        FAIR      82  60  47 W10       29.90F
GRAND RAPIDS   FAIR      86  61  42 W13       29.89F
IONIA          FAIR      86  57  36 W8G16     29.88F
KALAMAZOO      FAIR      87  58  37 VRB7      29.90F
LUDINGTON      FAIR      79  63  56 SW12      29.84F
MARSHALL       FAIR      85  51  31 S5        29.91F
MOUNT PLEASANT FAIR      88  60  38 W14       29.85F
MUSKEGON       FAIR      79  59  50 SW8       29.89F
SOUTH HAVEN    FAIR      84  57  38 SW9       29.90F
$$
MIZ016>042-252000-
NORTHERN LOWER MICHIGAN

CITY           SKY/WX    TMP DP  RH WIND       PRES   REMARKS
ALPENA         FAIR      90  62  39 W9G23     29.77F HX  90
BEAVER ISLAND  FAIR      71  61  69 SW10G16   29.77F
BELLAIRE       FAIR      85  62  44 W10G16    29.79F
CADILLAC       FAIR      85  59  41 SW14G22   29.85F
CHARLEVOIX     FAIR      80  64  58 SW13G21   29.81F
FRANKFORT      FAIR      79  60  52 SW10G17   29.82F
GAYLORD        FAIR      84  60  44 W16G32    29.82F
HARBOR SPRINGS FAIR      73  60  64 SW3       29.79F
HOUGHTON LAKE  FAIR      81  59  47 W21G29    29.84F
MANISTEE       FAIR      85  65  51 SW12G18   29.82F
OSCODA         PTSUNNY   90  55  29 W18G25    29.78F
PELLSTON       FAIR      82  63  52 W15G22    29.77F
ROGERS CITY    FAIR      73  60  63 N7        29.77F
TRAVERSE CITY  FAIR      90  64  42 W12G25    29.78F HX  91
$$
MIZ007>008-015-252000-
EASTERN UPPER MICHIGAN

CITY           SKY/WX    TMP DP  RH WIND       PRES   REMARKS
KINROSS        FAIR      75  60  59 SW8       29.77F
MACKINAC ISLAN FAIR      73  59  61 W9        29.77S
NEWBERRY       FAIR      75  62  63 S8G20     29.76S HAZE
S. S. MARIE    FAIR      78  63  59 SW8       29.74F
MUNISING         N/A     64  56  75 NE8       29.71F
$$
MIZ004>006-011>014-085-252000-
CENTRAL UPPER MICHIGAN

CITY           SKY/WX    TMP DP  RH WIND       PRES   REMARKS
MANISTIQUE     FAIR      61  58  91 S13       29.75F
ESCANABA       TSTM      64  59  83 SW14      29.78R
MENOMINEE      FAIR      88  58  36 W10G21    29.73F
SAWYER-GWINN   PTSUNNY   75  61  60 SW9       29.76F
$$
MIZ001>003-009>011-084-252000-
WESTERN UPPER MICHIGAN

CITY           SKY/WX    TMP DP  RH WIND       PRES   REMARKS
IRON MOUNTAIN  PTSUNNY   84  58  40 W10G24    29.74F
HOUGHTON       FAIR      77  65  66 S9        29.70F
COPPER HARBOR    N/A     61  54  77 S3        29.68S
IRONWOOD       FAIR      78  64  61 SW15      29.73F
$$

ABBREVIATIONS USED IN REMARKS
   TC - TEMPERATURE IN CELSIUS
  WCI - WIND CHILL INDEX
   HX - HEAT INDEX
  VSB - VISIBILITY





USA.gov is the U.S. government's official web portal to all federal, state and local government web resources and services.